Location: Stockholm
(59.3330°N, 18.0500°E)
Time: 00:17:18
(UTC+02:00)

NOAA 18 - Pass Details

Date: 08 April 2023
Orbit: 838 x 860 km, 98.9° (Epoch: 02 June)

Event Time Altitude Azimuth Distance (km) Brightness Sun altitude
Exits shadow 23:21:54 20° 214° (SW) 1,867 6.7 -21.0°
Maximum altitude 23:24:58 35° 265° (W) 1,370 6.4 -21.2°
Drops below altitude 10° 23:30:02 10° 331° (NNW) 2,509 8.8 -21.4°
Sets 23:32:39 0° 340° (NNW) 3,447 9.9 -21.5°
